Location: Unspecified
(42.3650°N, 71.1030°W)
Time: 22:51:40
(UTC+00:00)

Vanguard 3 - All Passes

Search period start: 15 June 2024 00:00
Search period end: 25 June 2024 00:00
Orbit: 509 x 3231 km, 33.3° (Epoch: 14 June)

Date Brightness Start Highest point End Pass type
(mag) Time Alt. Az. Time Alt. Az. Time Alt. Az.
15 Jun - 14:17:12 10° S 14:18:37 11° SSE 14:19:54 10° SSE daylight
15 Jun - 16:25:52 10° SW 16:29:39 20° S 16:32:41 10° ESE daylight
15 Jun - 18:37:07 10° WSW 18:40:08 21° S 18:43:02 10° SE daylight
15 Jun - 20:49:32 10° SSW 20:50:35 11° SSW 20:51:43 10° S daylight
16 Jun - 15:07:45 10° SSW 15:12:03 18° SSE 15:15:20 10° SE daylight
16 Jun - 17:19:03 10° SW 17:22:49 24° S 17:25:55 10° SE daylight
16 Jun - 19:30:52 10° SW 19:33:10 16° SSW 19:35:32 10° SSE daylight
17 Jun - 13:49:54 10° SSW 13:54:08 15° SSE 13:57:29 10° SE daylight
17 Jun - 16:00:35 10° SW 16:05:21 25° S 16:08:52 10° ESE daylight
17 Jun - 18:12:37 10° WSW 18:15:51 22° S 18:18:45 10° SE daylight
18 Jun - 12:33:29 10° S 12:35:54 11° SSE 12:38:03 10° SE daylight
18 Jun - 14:41:52 10° SW 14:47:38 23° S 14:51:41 10° ESE daylight
18 Jun - 16:54:04 10° WSW 16:58:31 27° S 17:01:54 10° SE daylight
18 Jun - 19:06:39 10° SW 19:08:49 14° SSW 19:10:55 10° SSE daylight
19 Jun - 13:23:14 10° SSW 13:29:35 20° SSE 13:34:07 10° ESE daylight
19 Jun - 15:35:06 10° SW 15:40:58 29° S 15:44:58 10° ESE daylight
19 Jun - 17:47:52 10° WSW 17:51:32 22° SSW 17:54:34 10° SE daylight
20 Jun - 12:05:21 10° S 12:11:09 15° SSE 12:15:39 10° SE daylight
20 Jun - 14:15:50 10° SW 14:23:07 28° S 14:27:54 10° ESE daylight
20 Jun - 16:28:52 10° WSW 16:34:09 30° S 16:37:53 10° SE daylight
20 Jun - 18:42:13 10° SW 18:44:24 14° SSW 18:46:24 10° S daylight
21 Jun - 10:50:46 10° SSE 10:52:21 10° SSE 10:53:52 10° SE daylight
21 Jun - 12:56:36 10° SSW 13:04:53 24° SSE 13:10:27 10° ESE daylight
21 Jun - 15:09:25 10° WSW 15:16:30 34° S 15:21:02 10° ESE daylight
21 Jun - 17:22:54 10° WSW 17:27:08 24° SSW 17:30:24 10° SE daylight
22 Jun - 11:37:57 10° SSW 11:46:15 20° SSE 11:52:16 10° ESE daylight
22 Jun - 13:49:39 10° SW 13:58:30 33° S 14:03:59 10° ESE daylight
22 Jun - 16:03:27 10° WSW 16:09:42 33° S 16:13:50 10° ESE daylight
22 Jun - 18:17:30 10° WSW 18:19:55 14° SSW 18:22:02 10° S daylight
23 Jun - 10:20:58 10° S 10:27:15 14° SSE 10:32:26 10° ESE daylight
23 Jun - 12:29:54 10° SW 12:40:03 29° SSE 12:46:34 10° ESE daylight
23 Jun - 14:43:32 10° WSW 14:51:55 38° S 14:57:02 10° ESE daylight
23 Jun - 16:57:42 10° WSW 17:02:40 26° SSW 17:06:16 10° SE daylight
24 Jun - 11:10:42 10° SSW 11:21:11 24° SSE 11:28:29 10° ESE daylight
24 Jun - 13:23:18 10° SW 13:33:42 38° S 13:39:58 10° ESE daylight
24 Jun - 15:37:48 10° WSW 15:45:09 37° S 15:49:46 10° ESE daylight
24 Jun - 17:52:31 10° WSW 17:55:21 15° SSW 17:57:45 10° S daylight
